Time,TemperatureF,DewpointF,PressureIn,WindDirection,WindDirectionDegrees,WindSpeedMPH,WindSpeedGustMPH,Humidity,HourlyPrecipIn,Conditions,Clouds,dailyrainin,SoftwareType,DateUTC
2013-09-27 00:03:00,51.1,41.8,30.07,North,0,0.0,0.0,70,0.00,,,0.00,WUHU216HW,2013-09-27 04:03:00,
2013-09-27 00:08:00,51.1,41.8,30.07,North,0,0.0,0.0,70,0.00,,,0.00,WUHU216HW,2013-09-27 04:08:00,
2013-09-27 00:13:00,51.1,41.8,30.07,North,0,0.0,0.0,70,0.00,,,0.00,WUHU216HW,2013-09-27 04:13:00,
2013-09-27 00:18:00,51.1,41.8,30.08,North,0,0.0,0.0,70,0.00,,,0.00,WUHU216HW,2013-09-27 04:18:00,
2013-09-27 00:23:00,51.1,41.8,30.08,North,0,0.0,0.0,70,0.00,,,0.00,WUHU216HW,2013-09-27 04:23:00,
2013-09-27 00:28:00,51.1,41.8,30.08,North,0,0.0,0.0,70,0.00,,,0.00,WUHU216HW,2013-09-27 04:28:00,
2013-09-27 00:33:00,51.1,41.8,30.08,North,0,0.0,0.0,70,0.00,,,0.00,WUHU216HW,2013-09-27 04:33:00,
2013-09-27 00:38:00,51.3,41.5,30.08,North,0,0.0,0.0,69,0.00,,,0.00,WUHU216HW,2013-09-27 04:38:00,
2013-09-27 00:43:00,51.3,41.9,30.08,North,0,0.0,0.0,70,0.00,,,0.00,WUHU216HW,2013-09-27 04:43:00,
2013-09-27 00:48:00,51.3,41.5,30.08,North,0,0.0,0.0,69,0.00,,,0.00,WUHU216HW,2013-09-27 04:48:00,
2013-09-27 00:53:00,51.3,41.5,30.08,North,0,0.0,0.0,69,0.00,,,0.00,WUHU216HW,2013-09-27 04:53:00,
2013-09-27 00:58:00,51.5,41.7,30.07,North,0,0.0,0.0,69,0.00,,,0.00,WUHU216HW,2013-09-27 04:58:00,
2013-09-27 01:03:00,51.3,41.1,30.08,North,0,0.0,0.0,68,0.00,,,0.00,WUHU216HW,2013-09-27 05:03:00,
2013-09-27 01:08:00,51.3,41.1,30.08,North,0,0.0,0.0,68,0.00,,,0.00,WUHU216HW,2013-09-27 05:08:00,
2013-09-27 01:13:00,51.5,41.3,30.08,North,0,0.0,0.0,68,0.00,,,0.00,WUHU216HW,2013-09-27 05:13:00,
2013-09-27 01:18:00,51.5,41.3,30.08,North,0,0.0,0.0,68,0.00,,,0.00,WUHU216HW,2013-09-27 05:18:00,
2013-09-27 01:23:00,51.5,41.3,30.08,North,0,0.0,0.0,68,0.00,,,0.00,WUHU216HW,2013-09-27 05:23:00,
2013-09-27 01:28:00,51.5,41.3,30.08,North,0,0.0,0.0,68,0.00,,,0.00,WUHU216HW,2013-09-27 05:28:00,
2013-09-27 01:33:00,51.5,41.3,30.08,North,0,0.0,0.0,68,0.00,,,0.00,WUHU216HW,2013-09-27 05:33:00,
2013-09-27 01:38:00,51.5,41.3,30.08,North,0,0.0,0.0,68,0.00,,,0.00,WUHU216HW,2013-09-27 05:38:00,
2013-09-27 01:43:00,51.5,41.3,30.08,North,0,0.0,0.0,68,0.00,,,0.00,WUHU216HW,2013-09-27 05:43:00,
2013-09-27 01:48:00,51.5,41.3,30.08,North,0,0.0,0.0,68,0.00,,,0.00,WUHU216HW,2013-09-27 05:48:00,
2013-09-27 01:53:00,51.5,41.3,30.08,North,0,0.0,0.0,68,0.00,,,0.00,WUHU216HW,2013-09-27 05:53:00,
2013-09-27 01:58:00,51.5,41.3,30.08,North,0,0.0,0.0,68,0.00,,,0.00,WUHU216HW,2013-09-27 05:58:00,
2013-09-27 02:03:00,51.5,41.3,30.08,North,0,0.0,0.0,68,0.00,,,0.00,WUHU216HW,2013-09-27 06:03:00,
2013-09-27 02:08:00,51.5,41.3,30.08,North,0,0.0,0.0,68,0.00,,,0.00,WUHU216HW,2013-09-27 06:08:00,
2013-09-27 02:13:00,51.5,41.3,30.08,North,0,0.0,0.0,68,0.00,,,0.00,WUHU216HW,2013-09-27 06:13:00,
2013-09-27 02:18:00,51.5,41.3,30.08,North,0,0.0,0.0,68,0.00,,,0.00,WUHU216HW,2013-09-27 06:18:00,
2013-09-27 02:23:00,51.5,41.3,30.08,North,0,0.0,0.0,68,0.00,,,0.00,WUHU216HW,2013-09-27 06:23:00,
2013-09-27 02:28:00,51.5,40.9,30.08,North,0,0.0,0.0,67,0.00,,,0.00,WUHU216HW,2013-09-27 06:28:00,
2013-09-27 02:33:00,51.5,40.9,30.08,North,0,0.0,0.0,67,0.00,,,0.00,WUHU216HW,2013-09-27 06:33:00,
2013-09-27 02:39:00,51.5,40.9,30.08,North,0,0.0,0.0,67,0.00,,,0.00,WUHU216HW,2013-09-27 06:39:00,
2013-09-27 02:44:00,51.5,40.9,30.08,North,0,0.0,0.0,67,0.00,,,0.00,WUHU216HW,2013-09-27 06:44:00,
2013-09-27 02:49:00,51.5,40.9,30.08,North,0,0.0,0.0,67,0.00,,,0.00,WUHU216HW,2013-09-27 06:49:00,
2013-09-27 02:54:00,51.5,40.9,30.08,North,0,0.0,0.0,67,0.00,,,0.00,WUHU216HW,2013-09-27 06:54:00,
2013-09-27 02:59:00,51.5,40.9,30.08,North,0,0.0,0.0,67,0.00,,,0.00,WUHU216HW,2013-09-27 06:59:00,
2013-09-27 03:04:00,51.5,40.5,30.08,North,0,0.0,0.0,66,0.00,,,0.00,WUHU216HW,2013-09-27 07:04:00,
2013-09-27 03:09:00,51.5,40.5,30.08,North,0,0.0,0.0,66,0.00,,,0.00,WUHU216HW,2013-09-27 07:09:00,
2013-09-27 03:14:00,51.5,40.5,30.08,North,0,0.0,0.0,66,0.00,,,0.00,WUHU216HW,2013-09-27 07:14:00,
2013-09-27 03:19:00,51.5,40.5,30.08,North,0,0.0,0.0,66,0.00,,,0.00,WUHU216HW,2013-09-27 07:19:00,
2013-09-27 03:24:00,51.5,40.5,30.08,North,0,0.0,0.0,66,0.00,,,0.00,WUHU216HW,2013-09-27 07:24:00,
2013-09-27 03:29:00,51.5,40.5,30.08,North,0,0.0,0.0,66,0.00,,,0.00,WUHU216HW,2013-09-27 07:29:00,
2013-09-27 03:34:00,51.5,40.5,30.08,North,0,0.0,0.0,66,0.00,,,0.00,WUHU216HW,2013-09-27 07:34:00,
2013-09-27 03:39:00,51.5,40.1,30.08,North,0,0.0,0.0,65,0.00,,,0.00,WUHU216HW,2013-09-27 07:39:00,
2013-09-27 03:44:00,51.5,40.1,30.08,North,0,0.0,0.0,65,0.00,,,0.00,WUHU216HW,2013-09-27 07:44:00,
2013-09-27 03:49:00,51.5,40.1,30.08,North,0,0.0,0.0,65,0.00,,,0.00,WUHU216HW,2013-09-27 07:49:00,
2013-09-27 03:54:00,51.5,40.1,30.08,North,0,0.0,0.0,65,0.00,,,0.00,WUHU216HW,2013-09-27 07:54:00,
2013-09-27 03:59:00,51.5,40.1,30.08,North,0,0.0,0.0,65,0.00,,,0.00,WUHU216HW,2013-09-27 07:59:00,
2013-09-27 04:04:00,51.5,40.1,30.08,North,0,0.0,0.0,65,0.00,,,0.00,WUHU216HW,2013-09-27 08:04:00,
2013-09-27 04:09:00,51.5,39.7,30.08,North,0,0.0,0.0,64,0.00,,,0.00,WUHU216HW,2013-09-27 08:09:00,
2013-09-27 04:14:00,51.5,39.7,30.08,North,0,0.0,0.0,64,0.00,,,0.00,WUHU216HW,2013-09-27 08:14:00,
2013-09-27 04:19:00,51.5,39.7,30.08,North,0,0.0,0.0,64,0.00,,,0.00,WUHU216HW,2013-09-27 08:19:00,
2013-09-27 04:24:00,51.5,39.7,30.08,North,0,0.0,0.0,64,0.00,,,0.00,WUHU216HW,2013-09-27 08:24:00,
2013-09-27 04:29:00,51.5,38.9,30.09,North,0,0.0,0.0,62,0.00,,,0.00,WUHU216HW,2013-09-27 08:29:00,
2013-09-27 04:34:00,51.5,38.9,30.09,North,0,0.0,0.0,62,0.00,,,0.00,WUHU216HW,2013-09-27 08:34:00,
2013-09-27 04:39:00,51.5,38.9,30.09,North,0,0.0,0.0,62,0.00,,,0.00,WUHU216HW,2013-09-27 08:39:00,
2013-09-27 04:44:00,51.5,38.9,30.09,North,0,0.0,0.0,62,0.00,,,0.00,WUHU216HW,2013-09-27 08:44:00,
2013-09-27 04:49:00,51.5,38.9,30.09,North,0,0.0,0.0,62,0.00,,,0.00,WUHU216HW,2013-09-27 08:49:00,
2013-09-27 04:54:00,51.5,38.9,30.09,North,0,0.0,0.0,62,0.00,,,0.00,WUHU216HW,2013-09-27 08:54:00,
2013-09-27 04:59:00,51.5,38.9,30.09,North,0,0.0,0.0,62,0.00,,,0.00,WUHU216HW,2013-09-27 08:59:00,
2013-09-27 05:04:00,51.5,38.4,30.10,North,0,0.0,0.0,61,0.00,,,0.00,WUHU216HW,2013-09-27 09:04:00,
2013-09-27 05:09:00,51.5,38.4,30.10,North,0,0.0,0.0,61,0.00,,,0.00,WUHU216HW,2013-09-27 09:09:00,
2013-09-27 05:14:00,51.5,38.4,30.10,North,0,0.0,0.0,61,0.00,,,0.00,WUHU216HW,2013-09-27 09:14:00,
2013-09-27 05:19:00,51.5,38.4,30.10,North,0,0.0,0.0,61,0.00,,,0.00,WUHU216HW,2013-09-27 09:19:00,
2013-09-27 05:24:00,51.7,38.6,30.10,North,0,0.0,0.0,61,0.00,,,0.00,WUHU216HW,2013-09-27 09:24:00,
2013-09-27 05:29:00,51.7,38.6,30.10,North,0,0.0,0.0,61,0.00,,,0.00,WUHU216HW,2013-09-27 09:29:00,
2013-09-27 05:34:00,51.7,38.2,30.10,North,0,0.0,0.0,60,0.00,,,0.00,WUHU216HW,2013-09-27 09:34:00,
2013-09-27 05:39:00,51.7,38.2,30.11,North,0,0.0,0.0,60,0.00,,,0.00,WUHU216HW,2013-09-27 09:39:00,
2013-09-27 05:44:00,51.7,38.2,30.11,North,0,0.0,0.0,60,0.00,,,0.00,WUHU216HW,2013-09-27 09:44:00,
2013-09-27 05:49:00,51.7,37.7,30.11,North,0,0.0,0.0,59,0.00,,,0.00,WUHU216HW,2013-09-27 09:49:00,
2013-09-27 05:54:00,51.7,37.7,30.11,North,0,0.0,0.0,59,0.00,,,0.00,WUHU216HW,2013-09-27 09:54:00,
2013-09-27 05:59:00,51.7,37.7,30.11,North,0,0.0,0.0,59,0.00,,,0.00,WUHU216HW,2013-09-27 09:59:00,
2013-09-27 06:04:00,51.7,37.7,30.11,North,0,0.0,0.0,59,0.00,,,0.00,WUHU216HW,2013-09-27 10:04:00,
2013-09-27 06:09:00,51.7,37.7,30.11,North,0,0.0,0.0,59,0.00,,,0.00,WUHU216HW,2013-09-27 10:09:00,
2013-09-27 06:14:00,51.7,37.3,30.12,North,0,0.0,0.0,58,0.00,,,0.00,WUHU216HW,2013-09-27 10:14:00,
2013-09-27 06:19:00,51.8,37.9,30.12,North,0,0.0,0.0,59,0.00,,,0.00,WUHU216HW,2013-09-27 10:19:00,
2013-09-27 06:24:00,51.7,37.7,30.12,North,0,0.0,0.0,59,0.00,,,0.00,WUHU216HW,2013-09-27 10:24:00,
2013-09-27 06:29:00,51.8,37.4,30.12,North,0,0.0,0.0,58,0.00,,,0.00,WUHU216HW,2013-09-27 10:29:00,
2013-09-27 06:34:00,51.7,36.8,30.12,North,0,0.0,0.0,57,0.00,,,0.00,WUHU216HW,2013-09-27 10:34:00,
2013-09-27 06:39:00,51.8,37.0,30.13,North,0,0.0,0.0,57,0.00,,,0.00,WUHU216HW,2013-09-27 10:39:00,
2013-09-27 06:45:00,51.8,36.1,30.13,North,0,0.0,0.0,55,0.00,,,0.00,WUHU216HW,2013-09-27 10:45:00,
2013-09-27 06:50:00,51.8,36.1,30.13,North,0,0.0,0.0,55,0.00,,,0.00,WUHU216HW,2013-09-27 10:50:00,
2013-09-27 06:55:00,51.8,35.6,30.13,North,0,0.0,0.0,54,0.00,,,0.00,WUHU216HW,2013-09-27 10:55:00,
2013-09-27 07:00:00,51.8,35.2,30.13,North,0,0.0,0.0,53,0.00,,,0.00,WUHU216HW,2013-09-27 11:00:00,
2013-09-27 07:05:00,51.8,33.3,30.13,North,0,0.0,0.0,49,0.00,,,0.00,WUHU216HW,2013-09-27 11:05:00,
2013-09-27 07:10:00,51.8,33.3,30.13,North,0,0.0,0.0,49,0.00,,,0.00,WUHU216HW,2013-09-27 11:10:00,
2013-09-27 07:15:00,51.8,32.8,30.14,North,0,0.0,0.0,48,0.00,,,0.00,WUHU216HW,2013-09-27 11:15:00,
2013-09-27 07:20:00,51.8,30.5,30.14,North,0,0.0,0.0,44,0.00,,,0.00,WUHU216HW,2013-09-27 11:20:00,
2013-09-27 07:25:00,52.0,32.3,30.14,North,0,0.0,0.0,47,0.00,,,0.00,WUHU216HW,2013-09-27 11:25:00,
2013-09-27 07:30:00,52.0,32.9,30.14,North,0,0.0,0.0,48,0.00,,,0.00,WUHU216HW,2013-09-27 11:30:00,
2013-09-27 07:35:00,52.2,31.4,30.14,North,0,0.0,0.0,45,0.00,,,0.00,WUHU216HW,2013-09-27 11:35:00,
2013-09-27 07:40:00,52.2,31.4,30.15,North,0,0.0,0.0,45,0.00,,,0.00,WUHU216HW,2013-09-27 11:40:00,
2013-09-27 07:45:00,52.2,32.0,30.15,North,0,0.0,0.0,46,0.00,,,0.00,WUHU216HW,2013-09-27 11:45:00,
2013-09-27 07:50:00,52.4,33.2,30.15,North,0,0.0,0.0,48,0.00,,,0.00,WUHU216HW,2013-09-27 11:50:00,
2013-09-27 07:55:00,52.6,34.5,30.15,North,0,0.0,0.0,50,0.00,,,0.00,WUHU216HW,2013-09-27 11:55:00,
2013-09-27 08:00:00,52.6,34.9,30.15,North,0,0.0,0.0,51,0.00,,,0.00,WUHU216HW,2013-09-27 12:00:00,
2013-09-27 08:05:00,52.7,35.6,30.15,North,0,0.0,0.0,52,0.00,,,0.00,WUHU216HW,2013-09-27 12:05:00,
2013-09-27 08:10:00,52.9,36.6,30.15,North,0,0.0,0.0,54,0.00,,,0.00,WUHU216HW,2013-09-27 12:10:00,
2013-09-27 08:15:00,52.9,36.6,30.15,North,0,0.0,0.0,54,0.00,,,0.00,WUHU216HW,2013-09-27 12:15:00,
2013-09-27 08:20:00,52.9,37.6,30.16,North,0,0.0,0.0,56,0.00,,,0.00,WUHU216HW,2013-09-27 12:20:00,
2013-09-27 08:25:00,52.9,38.1,30.16,North,0,0.0,0.0,57,0.00,,,0.00,WUHU216HW,2013-09-27 12:25:00,
2013-09-27 08:30:00,53.1,38.3,30.16,North,0,0.0,0.0,57,0.00,,,0.00,WUHU216HW,2013-09-27 12:30:00,
2013-09-27 08:35:00,53.1,38.7,30.16,North,0,0.0,0.0,58,0.00,,,0.00,WUHU216HW,2013-09-27 12:35:00,
2013-09-27 08:40:00,53.3,38.9,30.16,North,0,0.0,0.0,58,0.00,,,0.00,WUHU216HW,2013-09-27 12:40:00,
2013-09-27 08:45:00,53.3,38.9,30.16,North,0,0.0,0.0,58,0.00,,,0.00,WUHU216HW,2013-09-27 12:45:00,
2013-09-27 08:50:00,53.5,39.1,30.16,North,0,0.0,0.0,58,0.00,,,0.00,WUHU216HW,2013-09-27 12:50:00,
2013-09-27 08:55:00,53.5,39.1,30.16,North,0,0.0,0.0,58,0.00,,,0.00,WUHU216HW,2013-09-27 12:55:00,
2013-09-27 09:00:00,53.6,39.7,30.17,North,0,0.0,0.0,59,0.00,,,0.00,WUHU216HW,2013-09-27 13:00:00,
2013-09-27 09:05:00,53.5,39.5,30.17,North,0,0.0,0.0,59,0.00,,,0.00,WUHU216HW,2013-09-27 13:05:00,
2013-09-27 09:10:00,53.6,39.7,30.17,North,0,0.0,0.0,59,0.00,,,0.00,WUHU216HW,2013-09-27 13:10:00,
2013-09-27 09:15:00,53.8,40.3,30.17,North,0,0.0,0.0,60,0.00,,,0.00,WUHU216HW,2013-09-27 13:15:00,
2013-09-27 09:20:00,54.0,40.5,30.17,North,0,0.0,0.0,60,0.00,,,0.00,WUHU216HW,2013-09-27 13:20:00,
2013-09-27 09:25:00,54.0,40.5,30.17,North,0,0.0,0.0,60,0.00,,,0.00,WUHU216HW,2013-09-27 13:25:00,
2013-09-27 09:30:00,54.0,40.9,30.17,North,0,0.0,0.0,61,0.00,,,0.00,WUHU216HW,2013-09-27 13:30:00,
2013-09-27 09:35:00,54.4,43.2,30.17,North,0,0.0,0.0,66,0.00,,,0.00,WUHU216HW,2013-09-27 13:35:00,
2013-09-27 09:40:00,54.4,43.7,30.18,North,0,0.0,0.0,67,0.00,,,0.00,WUHU216HW,2013-09-27 13:40:00,
2013-09-27 09:45:00,54.4,43.7,30.18,North,0,0.0,0.0,67,0.00,,,0.00,WUHU216HW,2013-09-27 13:45:00,
2013-09-27 09:50:00,54.4,44.5,30.18,North,0,0.0,0.0,69,0.00,,,0.00,WUHU216HW,2013-09-27 13:50:00,
2013-09-27 09:55:00,54.9,44.1,30.18,North,0,0.0,0.0,67,0.00,,,0.00,WUHU216HW,2013-09-27 13:55:00,
2013-09-27 10:00:00,55.3,45.3,30.18,North,0,0.0,0.0,69,0.00,,,0.00,WUHU216HW,2013-09-27 14:00:00,
2013-09-27 10:05:00,56.0,46.4,30.18,North,0,0.0,0.0,70,0.00,,,0.00,WUHU216HW,2013-09-27 14:05:00,
2013-09-27 10:10:00,56.5,46.4,30.17,North,0,0.0,0.0,69,0.00,,,0.00,WUHU216HW,2013-09-27 14:10:00,
2013-09-27 10:15:00,56.7,46.6,30.18,North,0,0.0,0.0,69,0.00,,,0.00,WUHU216HW,2013-09-27 14:15:00,
2013-09-27 10:20:00,57.2,48.2,30.18,North,0,0.0,0.0,72,0.00,,,0.00,WUHU216HW,2013-09-27 14:20:00,
2013-09-27 10:25:00,57.4,49.1,30.18,North,0,0.0,0.0,74,0.00,,,0.00,WUHU216HW,2013-09-27 14:25:00,
2013-09-27 10:30:00,57.6,49.0,30.17,North,0,0.0,0.0,73,0.00,,,0.00,WUHU216HW,2013-09-27 14:30:00,
2013-09-27 10:35:00,57.4,49.1,30.18,North,0,0.0,0.0,74,0.00,,,0.00,WUHU216HW,2013-09-27 14:35:00,
2013-09-27 10:40:00,57.6,49.3,30.18,North,0,0.0,0.0,74,0.00,,,0.00,WUHU216HW,2013-09-27 14:40:00,
2013-09-27 10:45:00,57.4,49.5,30.18,North,0,0.0,0.0,75,0.00,,,0.00,WUHU216HW,2013-09-27 14:45:00,
2013-09-27 10:50:00,57.6,49.7,30.18,North,0,0.0,0.0,75,0.00,,,0.00,WUHU216HW,2013-09-27 14:50:00,
2013-09-27 10:55:00,57.8,49.9,30.17,North,0,0.0,0.0,75,0.00,,,0.00,WUHU216HW,2013-09-27 14:55:00,
2013-09-27 11:00:00,58.3,50.4,30.18,North,0,0.0,0.0,75,0.00,,,0.00,WUHU216HW,2013-09-27 15:00:00,
2013-09-27 11:05:00,58.9,50.9,30.18,North,0,0.0,0.0,75,0.00,,,0.00,WUHU216HW,2013-09-27 15:05:00,
2013-09-27 11:10:00,59.2,50.9,30.18,North,0,0.0,0.0,74,0.00,,,0.00,WUHU216HW,2013-09-27 15:10:00,
2013-09-27 11:15:00,59.0,50.4,30.18,North,0,0.0,0.0,73,0.00,,,0.00,WUHU216HW,2013-09-27 15:15:00,
2013-09-27 11:20:00,59.4,51.1,30.18,North,0,0.0,0.0,74,0.00,,,0.00,WUHU216HW,2013-09-27 15:20:00,
2013-09-27 11:25:00,60.3,52.0,30.18,North,0,0.0,0.0,74,0.00,,,0.00,WUHU216HW,2013-09-27 15:25:00,
2013-09-27 11:30:00,61.0,52.8,30.18,North,0,0.0,0.0,74,0.00,,,0.00,WUHU216HW,2013-09-27 15:30:00,
2013-09-27 11:36:00,61.4,52.7,30.18,North,0,0.0,0.0,73,0.00,,,0.00,WUHU216HW,2013-09-27 15:36:00,
2013-09-27 11:41:00,61.6,52.8,30.18,North,0,0.0,0.0,73,0.00,,,0.00,WUHU216HW,2013-09-27 15:41:00,
2013-09-27 11:46:00,62.3,53.5,30.18,North,0,0.0,0.0,73,0.00,,,0.00,WUHU216HW,2013-09-27 15:46:00,
2013-09-27 11:51:00,62.5,53.6,30.18,North,0,0.0,0.0,73,0.00,,,0.00,WUHU216HW,2013-09-27 15:51:00,
2013-09-27 11:56:00,62.5,52.9,30.17,North,0,0.0,0.0,71,0.00,,,0.00,WUHU216HW,2013-09-27 15:56:00,
2013-09-27 12:01:00,62.5,52.9,30.17,North,0,0.0,0.0,71,0.00,,,0.00,WUHU216HW,2013-09-27 16:01:00,
2013-09-27 12:06:00,62.3,53.1,30.17,North,0,0.0,0.0,72,0.00,,,0.00,WUHU216HW,2013-09-27 16:06:00,
2013-09-27 12:11:00,62.8,53.6,30.17,North,0,0.0,0.0,72,0.00,,,0.00,WUHU216HW,2013-09-27 16:11:00,
2013-09-27 12:16:00,63.0,53.5,30.17,North,0,0.0,0.0,71,0.00,,,0.00,WUHU216HW,2013-09-27 16:16:00,
2013-09-27 12:21:00,63.0,53.1,30.17,North,0,0.0,0.0,70,0.00,,,0.00,WUHU216HW,2013-09-27 16:21:00,
2013-09-27 12:26:00,63.2,52.0,30.17,North,0,0.0,0.0,67,0.00,,,0.00,WUHU216HW,2013-09-27 16:26:00,
2013-09-27 12:31:00,62.8,52.5,30.17,North,0,0.0,0.0,69,0.00,,,0.00,WUHU216HW,2013-09-27 16:31:00,
2013-09-27 12:36:00,63.0,53.1,30.16,North,0,0.0,0.0,70,0.00,,,0.00,WUHU216HW,2013-09-27 16:36:00,
2013-09-27 12:41:00,63.7,53.8,30.16,North,0,0.0,0.0,70,0.00,,,0.00,WUHU216HW,2013-09-27 16:41:00,
2013-09-27 12:46:00,64.1,53.3,30.16,North,0,0.0,0.0,68,0.00,,,0.00,WUHU216HW,2013-09-27 16:46:00,
2013-09-27 12:51:00,63.5,53.2,30.16,North,0,0.0,0.0,69,0.00,,,0.00,WUHU216HW,2013-09-27 16:51:00,
2013-09-27 12:56:00,63.9,52.3,30.16,North,0,0.0,0.0,66,0.00,,,0.00,WUHU216HW,2013-09-27 16:56:00,
2013-09-27 13:01:00,64.1,52.9,30.16,North,0,0.0,0.0,67,0.00,,,0.00,WUHU216HW,2013-09-27 17:01:00,
2013-09-27 13:06:00,64.4,54.1,30.16,North,0,0.0,0.0,69,0.00,,,0.00,WUHU216HW,2013-09-27 17:06:00,
2013-09-27 13:11:00,64.8,53.6,30.16,North,0,0.0,0.0,67,0.00,,,0.00,WUHU216HW,2013-09-27 17:11:00,
2013-09-27 13:16:00,64.3,52.7,30.15,North,0,0.0,0.0,66,0.00,,,0.00,WUHU216HW,2013-09-27 17:16:00,
2013-09-27 13:21:00,64.3,53.5,30.15,North,0,0.0,0.0,68,0.00,,,0.00,WUHU216HW,2013-09-27 17:21:00,
2013-09-27 13:26:00,64.6,53.4,30.15,North,0,0.0,0.0,67,0.00,,,0.00,WUHU216HW,2013-09-27 17:26:00,
2013-09-27 13:31:00,65.0,53.7,30.15,North,0,0.0,0.0,67,0.00,,,0.00,WUHU216HW,2013-09-27 17:31:00,
2013-09-27 13:36:00,65.5,53.8,30.15,North,0,0.0,0.0,66,0.00,,,0.00,WUHU216HW,2013-09-27 17:36:00,
2013-09-27 13:41:00,65.3,51.6,30.15,North,0,0.0,0.0,61,0.00,,,0.00,WUHU216HW,2013-09-27 17:41:00,
2013-09-27 13:46:00,65.0,52.5,30.14,North,0,0.0,0.0,64,0.00,,,0.00,WUHU216HW,2013-09-27 17:46:00,
2013-09-27 13:51:00,65.3,53.3,30.15,North,0,0.0,0.0,65,0.00,,,0.00,WUHU216HW,2013-09-27 17:51:00,
2013-09-27 13:56:00,65.9,54.2,30.14,North,0,0.0,0.0,66,0.00,,,0.00,WUHU216HW,2013-09-27 17:56:00,
2013-09-27 14:01:00,66.4,53.8,30.14,North,0,0.0,0.0,64,0.00,,,0.00,WUHU216HW,2013-09-27 18:01:00,
2013-09-27 14:06:00,65.9,53.7,30.14,North,0,0.0,0.0,65,0.00,,,0.00,WUHU216HW,2013-09-27 18:06:00,
2013-09-27 14:11:00,65.5,53.4,30.14,North,0,0.0,0.0,65,0.00,,,0.00,WUHU216HW,2013-09-27 18:11:00,
2013-09-27 14:16:00,65.5,54.6,30.14,North,0,0.0,0.0,68,0.00,,,0.00,WUHU216HW,2013-09-27 18:16:00,
2013-09-27 14:21:00,66.2,54.6,30.14,North,0,0.0,0.0,66,0.00,,,0.00,WUHU216HW,2013-09-27 18:21:00,
2013-09-27 14:26:00,66.1,53.5,30.13,North,0,0.0,0.0,64,0.00,,,0.00,WUHU216HW,2013-09-27 18:26:00,
2013-09-27 14:31:00,65.9,54.2,30.13,North,0,0.0,0.0,66,0.00,,,0.00,WUHU216HW,2013-09-27 18:31:00,
2013-09-27 14:36:00,65.7,54.5,30.13,North,0,0.0,0.0,67,0.00,,,0.00,WUHU216HW,2013-09-27 18:36:00,
2013-09-27 14:42:00,65.0,53.7,30.13,North,0,0.0,0.0,67,0.00,,,0.00,WUHU216HW,2013-09-27 18:42:00,
2013-09-27 14:47:00,65.0,53.3,30.13,North,0,0.0,0.0,66,0.00,,,0.00,WUHU216HW,2013-09-27 18:47:00,
2013-09-27 14:52:00,65.5,53.8,30.13,North,0,0.0,0.0,66,0.00,,,0.00,WUHU216HW,2013-09-27 18:52:00,
2013-09-27 14:57:00,66.2,54.9,30.13,North,0,0.0,0.0,67,0.00,,,0.00,WUHU216HW,2013-09-27 18:57:00,
2013-09-27 15:02:00,66.8,55.4,30.13,North,0,0.0,0.0,67,0.00,,,0.00,WUHU216HW,2013-09-27 19:02:00,
2013-09-27 15:07:00,67.0,54.4,30.13,North,0,0.0,0.0,64,0.00,,,0.00,WUHU216HW,2013-09-27 19:07:00,
2013-09-27 15:12:00,67.3,55.1,30.13,North,0,0.0,0.0,65,0.00,,,0.00,WUHU216HW,2013-09-27 19:12:00,
2013-09-27 15:17:00,67.1,53.3,30.13,North,0,0.0,0.0,61,0.00,,,0.00,WUHU216HW,2013-09-27 19:17:00,
2013-09-27 15:22:00,67.1,53.3,30.13,North,0,0.0,0.0,61,0.00,,,0.00,WUHU216HW,2013-09-27 19:22:00,
2013-09-27 15:27:00,67.1,54.1,30.13,North,0,0.0,0.0,63,0.00,,,0.00,WUHU216HW,2013-09-27 19:27:00,
2013-09-27 15:32:00,67.3,54.7,30.12,North,0,0.0,0.0,64,0.00,,,0.00,WUHU216HW,2013-09-27 19:32:00,
2013-09-27 15:37:00,67.3,54.7,30.12,North,0,0.0,0.0,64,0.00,,,0.00,WUHU216HW,2013-09-27 19:37:00,
2013-09-27 15:42:00,67.3,54.7,30.12,North,0,0.0,0.0,64,0.00,,,0.00,WUHU216HW,2013-09-27 19:42:00,
2013-09-27 15:47:00,67.3,55.1,30.12,North,0,0.0,0.0,65,0.00,,,0.00,WUHU216HW,2013-09-27 19:47:00,
2013-09-27 15:52:00,67.0,54.8,30.12,North,0,0.0,0.0,65,0.00,,,0.00,WUHU216HW,2013-09-27 19:52:00,
2013-09-27 15:57:00,67.0,54.8,30.12,North,0,0.0,0.0,65,0.00,,,0.00,WUHU216HW,2013-09-27 19:57:00,
2013-09-27 16:02:00,66.6,54.5,30.12,North,0,0.0,0.0,65,0.00,,,0.00,WUHU216HW,2013-09-27 20:02:00,
2013-09-27 16:07:00,66.1,54.4,30.12,North,0,0.0,0.0,66,0.00,,,0.00,WUHU216HW,2013-09-27 20:07:00,
2013-09-27 16:12:00,65.7,54.5,30.12,North,0,0.0,0.0,67,0.00,,,0.00,WUHU216HW,2013-09-27 20:12:00,
2013-09-27 16:17:00,65.5,54.3,30.12,North,0,0.0,0.0,67,0.00,,,0.00,WUHU216HW,2013-09-27 20:17:00,
2013-09-27 16:22:00,64.8,54.0,30.12,North,0,0.0,0.0,68,0.00,,,0.00,WUHU216HW,2013-09-27 20:22:00,
2013-09-27 16:27:00,64.8,54.0,30.12,North,0,0.0,0.0,68,0.00,,,0.00,WUHU216HW,2013-09-27 20:27:00,
2013-09-27 16:32:00,65.2,54.7,30.12,North,0,0.0,0.0,69,0.00,,,0.00,WUHU216HW,2013-09-27 20:32:00,
2013-09-27 16:37:00,65.2,54.4,30.13,North,0,0.0,0.0,68,0.00,,,0.00,WUHU216HW,2013-09-27 20:37:00,
2013-09-27 16:42:00,65.2,54.7,30.12,North,0,0.0,0.0,69,0.00,,,0.00,WUHU216HW,2013-09-27 20:42:00,
2013-09-27 16:47:00,65.0,54.6,30.12,North,0,0.0,0.0,69,0.00,,,0.00,WUHU216HW,2013-09-27 20:47:00,
2013-09-27 16:52:00,64.6,54.3,30.12,North,0,0.0,0.0,69,0.00,,,0.00,WUHU216HW,2013-09-27 20:52:00,
2013-09-27 16:57:00,64.6,54.3,30.13,North,0,0.0,0.0,69,0.00,,,0.00,WUHU216HW,2013-09-27 20:57:00,
2013-09-27 17:02:00,65.0,55.0,30.13,North,0,0.0,0.0,70,0.00,,,0.00,WUHU216HW,2013-09-27 21:02:00,
2013-09-27 17:07:00,65.2,55.2,30.13,North,0,0.0,0.0,70,0.00,,,0.00,WUHU216HW,2013-09-27 21:07:00,
2013-09-27 17:12:00,64.8,54.9,30.13,North,0,0.0,0.0,70,0.00,,,0.00,WUHU216HW,2013-09-27 21:12:00,
2013-09-27 17:17:00,64.4,54.5,30.13,North,0,0.0,0.0,70,0.00,,,0.00,WUHU216HW,2013-09-27 21:17:00,
2013-09-27 17:22:00,64.1,54.2,30.13,North,0,0.0,0.0,70,0.00,,,0.00,WUHU216HW,2013-09-27 21:22:00,
2013-09-27 17:27:00,63.9,54.4,30.13,North,0,0.0,0.0,71,0.00,,,0.00,WUHU216HW,2013-09-27 21:27:00,
2013-09-27 17:32:00,63.7,54.2,30.13,North,0,0.0,0.0,71,0.00,,,0.00,WUHU216HW,2013-09-27 21:32:00,
2013-09-27 17:37:00,63.2,54.0,30.13,North,0,0.0,0.0,72,0.00,,,0.00,WUHU216HW,2013-09-27 21:37:00,
2013-09-27 17:42:00,63.0,54.2,30.13,North,0,0.0,0.0,73,0.00,,,0.00,WUHU216HW,2013-09-27 21:42:00,
2013-09-27 17:47:00,63.0,54.2,30.13,North,0,0.0,0.0,73,0.00,,,0.00,WUHU216HW,2013-09-27 21:47:00,
2013-09-27 17:52:00,62.6,53.5,30.13,North,0,0.0,0.0,72,0.00,,,0.00,WUHU216HW,2013-09-27 21:52:00,
2013-09-27 17:57:00,62.5,53.3,30.13,North,0,0.0,0.0,72,0.00,,,0.00,WUHU216HW,2013-09-27 21:57:00,
2013-09-27 18:03:00,62.3,53.1,30.13,North,0,0.0,0.0,72,0.00,,,0.00,WUHU216HW,2013-09-27 22:03:00,
2013-09-27 18:08:00,62.1,53.4,30.13,North,0,0.0,0.0,73,0.00,,,0.00,WUHU216HW,2013-09-27 22:08:00,
2013-09-27 18:13:00,61.9,53.2,30.13,North,0,0.0,0.0,73,0.00,,,0.00,WUHU216HW,2013-09-27 22:13:00,
2013-09-27 18:18:00,60.7,52.0,30.13,North,0,0.0,0.0,73,0.00,,,0.00,WUHU216HW,2013-09-27 22:18:00,
2013-09-27 18:23:00,60.1,51.5,30.13,North,0,0.0,0.0,73,0.00,,,0.00,WUHU216HW,2013-09-27 22:23:00,
2013-09-27 18:28:00,59.6,51.3,30.13,North,0,0.0,0.0,74,0.00,,,0.00,WUHU216HW,2013-09-27 22:28:00,
2013-09-27 18:33:00,59.0,50.8,30.14,North,0,0.0,0.0,74,0.00,,,0.00,WUHU216HW,2013-09-27 22:33:00,
2013-09-27 18:38:00,58.3,50.8,30.14,North,0,0.0,0.0,76,0.00,,,0.00,WUHU216HW,2013-09-27 22:38:00,
2013-09-27 18:43:00,57.8,50.2,30.14,North,0,0.0,0.0,76,0.00,,,0.00,WUHU216HW,2013-09-27 22:43:00,
2013-09-27 18:48:00,57.6,50.0,30.14,North,0,0.0,0.0,76,0.00,,,0.00,WUHU216HW,2013-09-27 22:48:00,
2013-09-27 18:53:00,57.6,50.0,30.14,North,0,0.0,0.0,76,0.00,,,0.00,WUHU216HW,2013-09-27 22:53:00,
2013-09-27 18:58:00,57.6,50.0,30.14,North,0,0.0,0.0,76,0.00,,,0.00,WUHU216HW,2013-09-27 22:58:00,
2013-09-27 19:03:00,57.4,49.9,30.14,North,0,0.0,0.0,76,0.00,,,0.00,WUHU216HW,2013-09-27 23:03:00,
2013-09-27 19:08:00,57.4,49.9,30.14,North,0,0.0,0.0,76,0.00,,,0.00,WUHU216HW,2013-09-27 23:08:00,
2013-09-27 19:13:00,57.4,49.9,30.14,North,0,0.0,0.0,76,0.00,,,0.00,WUHU216HW,2013-09-27 23:13:00,
2013-09-27 19:18:00,57.1,48.8,30.14,North,0,0.0,0.0,74,0.00,,,0.00,WUHU216HW,2013-09-27 23:18:00,
2013-09-27 19:23:00,56.9,49.0,30.15,North,0,0.0,0.0,75,0.00,,,0.00,WUHU216HW,2013-09-27 23:23:00,
2013-09-27 19:28:00,56.7,48.8,30.15,North,0,0.0,0.0,75,0.00,,,0.00,WUHU216HW,2013-09-27 23:28:00,
2013-09-27 19:33:00,56.5,48.6,30.15,North,0,0.0,0.0,75,0.00,,,0.00,WUHU216HW,2013-09-27 23:33:00,
2013-09-27 19:38:00,56.3,48.5,30.15,North,0,0.0,0.0,75,0.00,,,0.00,WUHU216HW,2013-09-27 23:38:00,
2013-09-27 19:43:00,56.0,48.2,30.15,North,0,0.0,0.0,75,0.00,,,0.00,WUHU216HW,2013-09-27 23:43:00,
2013-09-27 19:48:00,55.8,48.0,30.15,North,0,0.0,0.0,75,0.00,,,0.00,WUHU216HW,2013-09-27 23:48:00,
2013-09-27 19:53:00,55.1,47.3,30.16,North,0,0.0,0.0,75,0.00,,,0.00,WUHU216HW,2013-09-27 23:53:00,
2013-09-27 19:55:00,54.7,46.9,30.16,North,0,0.0,0.0,75,0.00,,,0.00,WUHU216HW,2013-09-27 23:55:00,
2013-09-27 20:06:00,54.4,46.3,30.16,North,0,0.0,0.0,74,0.00,,,0.00,WUHU216HW,2013-09-28 00:06:00,
2013-09-27 20:11:00,54.0,46.3,30.16,North,0,0.0,0.0,75,0.00,,,0.00,WUHU216HW,2013-09-28 00:11:00,
2013-09-27 20:16:00,53.6,45.5,30.16,North,0,0.0,0.0,74,0.00,,,0.00,WUHU216HW,2013-09-28 00:16:00,
2013-09-27 20:21:00,53.5,45.4,30.17,North,0,0.0,0.0,74,0.00,,,0.00,WUHU216HW,2013-09-28 00:21:00,
2013-09-27 20:26:00,53.1,44.6,30.17,North,0,0.0,0.0,73,0.00,,,0.00,WUHU216HW,2013-09-28 00:26:00,
2013-09-27 20:31:00,52.9,44.6,30.17,North,0,0.0,0.0,73,0.00,,,0.00,WUHU216HW,2013-09-28 00:31:00,
2013-09-27 20:36:00,52.6,43.8,30.17,North,0,0.0,0.0,72,0.00,,,0.00,WUHU216HW,2013-09-28 00:36:00,
2013-09-27 20:41:00,52.2,43.5,30.17,North,0,0.0,0.0,72,0.00,,,0.00,WUHU216HW,2013-09-28 00:41:00,
2013-09-27 20:46:00,52.2,43.5,30.18,North,0,0.0,0.0,72,0.00,,,0.00,WUHU216HW,2013-09-28 00:46:00,
2013-09-27 20:51:00,51.8,43.2,30.18,North,0,0.0,0.0,72,0.00,,,0.00,WUHU216HW,2013-09-28 00:51:00,
2013-09-27 20:56:00,51.5,42.1,30.18,North,0,0.0,0.0,70,0.00,,,0.00,WUHU216HW,2013-09-28 00:56:00,
2013-09-27 21:01:00,51.1,41.3,30.18,North,0,0.0,0.0,69,0.00,,,0.00,WUHU216HW,2013-09-28 01:01:00,
2013-09-27 21:06:00,51.1,41.0,30.18,North,0,0.0,0.0,68,0.00,,,0.00,WUHU216HW,2013-09-28 01:06:00,
2013-09-27 21:11:00,50.8,40.2,30.18,North,0,0.0,0.0,67,0.00,,,0.00,WUHU216HW,2013-09-28 01:11:00,
2013-09-27 21:16:00,50.8,40.2,30.18,North,0,0.0,0.0,67,0.00,,,0.00,WUHU216HW,2013-09-28 01:16:00,
2013-09-27 21:21:00,50.4,39.4,30.18,North,0,0.0,0.0,66,0.00,,,0.00,WUHU216HW,2013-09-28 01:21:00,
2013-09-27 21:26:00,50.2,39.2,30.19,North,0,0.0,0.0,66,0.00,,,0.00,WUHU216HW,2013-09-28 01:26:00,
2013-09-27 21:31:00,50.0,38.7,30.19,North,0,0.0,0.0,65,0.00,,,0.00,WUHU216HW,2013-09-28 01:31:00,
2013-09-27 21:36:00,49.9,38.2,30.19,North,0,0.0,0.0,64,0.00,,,0.00,WUHU216HW,2013-09-28 01:36:00,
2013-09-27 21:41:00,49.9,37.7,30.19,North,0,0.0,0.0,63,0.00,,,0.00,WUHU216HW,2013-09-28 01:41:00,
2013-09-27 21:46:00,49.5,37.0,30.19,North,0,0.0,0.0,62,0.00,,,0.00,WUHU216HW,2013-09-28 01:46:00,
2013-09-27 21:51:00,49.3,37.3,30.19,North,0,0.0,0.0,63,0.00,,,0.00,WUHU216HW,2013-09-28 01:51:00,
2013-09-27 21:56:00,49.3,37.6,30.20,North,0,0.0,0.0,64,0.00,,,0.00,WUHU216HW,2013-09-28 01:56:00,
2013-09-27 22:01:00,49.0,37.3,30.20,North,0,0.0,0.0,64,0.00,,,0.00,WUHU216HW,2013-09-28 02:01:00,
2013-09-27 22:06:00,48.6,37.0,30.20,North,0,0.0,0.0,64,0.00,,,0.00,WUHU216HW,2013-09-28 02:06:00,
2013-09-27 22:11:00,48.6,35.8,30.20,North,0,0.0,0.0,61,0.00,,,0.00,WUHU216HW,2013-09-28 02:11:00,
2013-09-27 22:16:00,48.4,35.6,30.20,North,0,0.0,0.0,61,0.00,,,0.00,WUHU216HW,2013-09-28 02:16:00,
2013-09-27 22:21:00,48.2,35.5,30.21,North,0,0.0,0.0,61,0.00,,,0.00,WUHU216HW,2013-09-28 02:21:00,
2013-09-27 22:26:00,48.2,35.1,30.21,North,0,0.0,0.0,60,0.00,,,0.00,WUHU216HW,2013-09-28 02:26:00,
2013-09-27 22:31:00,48.1,34.0,30.20,North,0,0.0,0.0,58,0.00,,,0.00,WUHU216HW,2013-09-28 02:31:00,
2013-09-27 22:36:00,47.9,31.1,30.21,North,0,0.0,0.0,52,0.00,,,0.00,WUHU216HW,2013-09-28 02:36:00,
2013-09-27 22:41:00,47.9,31.5,30.21,North,0,0.0,0.0,53,0.00,,,0.00,WUHU216HW,2013-09-28 02:41:00,
2013-09-27 22:46:00,47.5,32.0,30.21,North,0,0.0,0.0,55,0.00,,,0.00,WUHU216HW,2013-09-28 02:46:00,
2013-09-27 22:51:00,47.5,33.0,30.21,North,0,0.0,0.0,57,0.00,,,0.00,WUHU216HW,2013-09-28 02:51:00,
2013-09-27 22:56:00,47.2,33.6,30.21,North,0,0.0,0.0,59,0.00,,,0.00,WUHU216HW,2013-09-28 02:56:00,
2013-09-27 23:01:00,47.0,33.4,30.21,North,0,0.0,0.0,59,0.00,,,0.00,WUHU216HW,2013-09-28 03:01:00,
2013-09-27 23:06:00,46.6,32.1,30.21,North,0,0.0,0.0,57,0.00,,,0.00,WUHU216HW,2013-09-28 03:06:00,
2013-09-27 23:12:00,46.6,32.1,30.21,North,0,0.0,0.0,57,0.00,,,0.00,WUHU216HW,2013-09-28 03:12:00,
2013-09-27 23:17:00,46.6,32.1,30.20,North,0,0.0,0.0,57,0.00,,,0.00,WUHU216HW,2013-09-28 03:17:00,
2013-09-27 23:22:00,46.4,31.5,30.21,North,0,0.0,0.0,56,0.00,,,0.00,WUHU216HW,2013-09-28 03:22:00,
2013-09-27 23:27:00,46.4,31.5,30.21,North,0,0.0,0.0,56,0.00,,,0.00,WUHU216HW,2013-09-28 03:27:00,
2013-09-27 23:32:00,46.4,29.3,30.21,North,0,0.0,0.0,51,0.00,,,0.00,WUHU216HW,2013-09-28 03:32:00,
2013-09-27 23:37:00,46.3,28.6,30.21,North,0,0.0,0.0,50,0.00,,,0.00,WUHU216HW,2013-09-28 03:37:00,
2013-09-27 23:42:00,46.1,28.4,30.21,North,0,0.0,0.0,50,0.00,,,0.00,WUHU216HW,2013-09-28 03:42:00,
2013-09-27 23:47:00,46.1,27.9,30.21,North,0,0.0,0.0,49,0.00,,,0.00,WUHU216HW,2013-09-28 03:47:00,
2013-09-27 23:52:00,46.3,28.1,30.21,North,0,0.0,0.0,49,0.00,,,0.00,WUHU216HW,2013-09-28 03:52:00,
2013-09-27 23:57:00,46.3,26.5,30.21,North,0,0.0,0.0,46,0.00,,,0.00,WUHU216HW,2013-09-28 03:57:00,